This is the latest recevied weather packets stored in our database for station/object 4S6DRJ-13. If no packets are shown the sender has not sent any weather packets the latest 10 day(s).
| Time | Temp. | Humidity | Pressure | Rain* | Wind** | Luminosity | Snow |
|---|---|---|---|---|---|---|---|
| 1788149381 | 30.56° C | 73% | 1010 hPa | 0 mm | 4.02 m/s, 284° | 986 W/m² | - |
| 1788149320 | 30.56° C | 73% | 1010.1 hPa | 0 mm | 0.45 m/s, 242° | 1101 W/m² | - |
| 1788149259 | 30.56° C | 73% | 1010.2 hPa | 0 mm | 1.34 m/s, 304° | 1101 W/m² | - |
| 1788149198 | 30.56° C | 72% | 1010.1 hPa | 0 mm | 1.79 m/s, 321° | 277 W/m² | - |
| 1788149137 | 30.56° C | 72% | 1010.2 hPa | 0 mm | 1.79 m/s, 308° | 992 W/m² | - |
| 1788149076 | 30.56° C | 72% | 1010.2 hPa | 0 mm | 2.68 m/s, 284° | 1106 W/m² | - |
| 1788149015 | 30.56° C | 71% | 1010.2 hPa | 0 mm | 3.13 m/s, 284° | 994 W/m² | - |
| 1788148954 | 30.56° C | 72% | 1010 hPa | 0 mm | 2.68 m/s, 331° | 992 W/m² | - |
| 1788148893 | 30.56° C | 72% | 1010.2 hPa | 0 mm | 2.24 m/s, 320° | 639 W/m² | - |
| 1788148833 | 30.56° C | 72% | 1010.1 hPa | 0 mm | 2.68 m/s, 287° | 962 W/m² | - |
| 1788148771 | 30.56° C | 73% | 1010.3 hPa | 0 mm | 2.24 m/s, 287° | 916 W/m² | - |
| 1788148711 | 30.56° C | 72% | 1010.1 hPa | 0 mm | 2.68 m/s, 309° | 882 W/m² | - |
| 1788148649 | 30.56° C | 71% | 1010 hPa | 0 mm | 3.58 m/s, 282° | 849 W/m² | - |
| 1788148588 | 30.56° C | 70% | 1010 hPa | 0 mm | 3.13 m/s, 302° | 842 W/m² | - |
| 1788148527 | 30° C | 72% | 1010.1 hPa | 0 mm | 3.58 m/s, 245° | 830 W/m² | - |
| 1788148466 | 30° C | 74% | 1010.1 hPa | 0 mm | 0.45 m/s, 315° | 667 W/m² | - |
| 1788148405 | 30° C | 75% | 1010.1 hPa | 0 mm | 3.13 m/s, 313° | 723 W/m² | - |
| 1788148344 | 30° C | 76% | 1010.1 hPa | 0 mm | 0.89 m/s, 297° | 820 W/m² | - |
| 1788148283 | 30° C | 76% | 1010.1 hPa | 0 mm | 2.24 m/s, 112° | 766 W/m² | - |
| 1788148222 | 30° C | 75% | 1010.1 hPa | 0 mm | 2.24 m/s, 318° | 795 W/m² | - |
| 1788148161 | 30° C | 73% | 1010 hPa | 0 mm | 3.58 m/s, 303° | 790 W/m² | - |
| 1788148100 | 30° C | 74% | 1010.2 hPa | 0 mm | 5.36 m/s, 298° | 785 W/m² | - |
| 1788148039 | 30° C | 75% | 1010.2 hPa | 0 mm | 1.79 m/s, 16° | 259 W/m² | - |
| 1788147978 | 30° C | 76% | 1010.2 hPa | 0 mm | 0.89 m/s, 307° | 605 W/m² | - |
| 1788147917 | 30° C | 76% | 1010.2 hPa | 0 mm | 1.34 m/s, 312° | 738 W/m² | - |
* Rain latest hour (hover to see other rain measurements)
** Current wind speed in m/s (hover to see current wind gust speed)